Location: Unspecified
(0.0000°N, 0.0000°E)
Time: 08:19:10
(UTC+00:00)

Courier 1B Rocket - All Passes

Search period start: 23 September 2014 00:00
Search period end: 03 October 2014 00:00
Orbit: 921 x 1202 km, 28.2° (Epoch: 21 September)

Date Brightness Start Highest point End Pass type
(mag) Time Alt. Az. Time Alt. Az. Time Alt. Az.
23 Sep - 00:44:23 10° W 00:51:44 44° SSW 00:58:53 10° SE night (unlit)
23 Sep - 02:42:21 10° SW 02:46:08 14° SSW 02:49:49 10° S visible
23 Sep - 08:30:46 10° S 08:33:18 12° SSE 08:35:48 10° SE daylight
23 Sep - 10:21:21 10° SW 10:27:17 44° SSE 10:33:11 10° E daylight
23 Sep - 12:14:44 10° WSW 12:20:41 47° NNW 12:26:47 10° NE daylight
23 Sep - 14:11:36 10° NW 14:14:40 14° NNW 14:17:48 10° N daylight
23 Sep - 19:58:24 10° N 20:02:00 14° NNE 20:05:39 10° NE visible
23 Sep - 21:49:19 10° NW 21:56:30 42° NNE 22:03:47 10° E visible
23 Sep - 23:42:42 10° WNW 23:50:27 65° SSW 23:58:06 10° SE night (unlit)
24 Sep - 01:39:05 10° WSW 01:44:38 21° SSW 01:50:02 10° SSE night (unlit)
24 Sep - 09:20:52 10° SSW 09:26:17 29° SSE 09:31:34 10° E daylight
24 Sep - 11:13:31 10° WSW 11:19:46 74° NNW 11:26:01 10° NE daylight
24 Sep - 13:08:59 10° WNW 13:13:24 20° NNW 13:17:56 10° NNE daylight
24 Sep - 20:48:48 10° NNW 20:55:09 29° NNE 21:01:41 10° E visible
24 Sep - 22:41:23 10° WNW 22:49:10 89° NNE 22:57:02 10° ESE night (unlit)
25 Sep - 00:36:33 10° W 00:43:13 30° SSW 00:49:45 10° SSE night (unlit)
25 Sep - 08:20:37 10° SSW 08:25:09 20° SSE 08:29:33 10° ESE daylight
25 Sep - 10:12:33 10° SW 10:18:52 71° SSE 10:25:04 10° ENE daylight
25 Sep - 12:06:58 10° W 12:12:18 30° NNW 12:17:42 10° NNE daylight
25 Sep - 19:48:36 10° NNW 19:53:45 20° NNE 19:59:04 10° ENE visible
25 Sep - 21:40:22 10° NW 21:47:54 62° NNE 21:55:38 10° ESE visible
25 Sep - 23:34:32 10° W 23:41:51 43° SSW 23:49:10 10° SE night (unlit)
26 Sep - 01:32:23 10° SW 01:36:22 15° SSW 01:40:19 10° S night (unlit)
26 Sep - 07:20:43 10° S 07:23:51 14° SSE 07:26:55 10° SE daylight
26 Sep - 09:11:46 10° SW 09:17:56 46° SSE 09:23:52 10° E daylight
26 Sep - 11:05:21 10° WSW 11:11:20 45° NNW 11:17:15 10° NE daylight
26 Sep - 13:02:40 10° NW 13:05:14 13° NNW 13:07:51 10° N daylight
26 Sep - 18:49:00 10° N 18:52:16 13° NNE 18:55:38 10° NE visible
26 Sep - 20:39:39 10° NW 20:46:38 42° NNE 20:53:54 10° E visible
26 Sep - 22:32:56 10° WNW 22:40:32 63° SSW 22:48:17 10° SE night (unlit)
27 Sep - 00:29:13 10° WSW 00:34:49 21° SSW 00:40:22 10° SSE night (unlit)
27 Sep - 08:11:09 10° SSW 08:16:53 30° SSE 08:22:21 10° E daylight
27 Sep - 10:04:02 10° WSW 10:10:25 72° NNW 10:16:36 10° NE daylight
27 Sep - 11:59:46 10° WNW 12:04:01 19° NNW 12:08:17 10° NNE daylight
27 Sep - 19:39:14 10° NNW 19:45:21 29° NNE 19:51:45 10° E visible
27 Sep - 21:31:41 10° WNW 21:39:16 90° SSW 21:47:09 10° ESE visible
27 Sep - 23:26:46 10° W 23:33:21 30° SSW 23:39:58 10° SSE night (unlit)
28 Sep - 01:27:32 10° SSW 01:28:18 10° SSW 01:29:05 10° SSW night (unlit)
28 Sep - 07:10:43 10° SSW 07:15:42 21° SSE 07:20:27 10° ESE daylight
28 Sep - 09:02:56 10° SW 09:09:30 74° SSE 09:15:44 10° ENE daylight
28 Sep - 10:57:36 10° W 11:02:56 29° NNW 11:08:12 10° NNE daylight
28 Sep - 18:39:10 10° NNW 18:44:02 19° NNE 18:49:05 10° ENE visible
28 Sep - 20:30:46 10° NW 20:38:02 63° NNE 20:45:43 10° ESE visible
28 Sep - 22:24:49 10° W 22:31:58 42° SSW 22:39:17 10° SE night (unlit)
29 Sep - 00:22:34 10° SW 00:26:35 15° SSW 00:30:36 10° S night (unlit)
29 Sep - 06:10:33 10° SSW 06:14:21 15° SSE 06:18:00 10° SE daylight
29 Sep - 08:02:01 10° SW 08:08:31 48° SSE 08:14:37 10° ENE daylight
29 Sep - 09:55:50 10° W 10:01:57 44° NNW 10:07:52 10° NE daylight
29 Sep - 11:53:34 10° NW 11:55:50 12° NNW 11:58:07 10° N daylight
29 Sep - 17:39:47 10° N 17:42:38 13° NNE 17:45:33 10° NE daylight
29 Sep - 19:30:08 10° NW 19:36:50 42° NNE 19:43:57 10° E visible
29 Sep - 21:23:18 10° WNW 21:30:39 61° SSW 21:38:21 10° SE visible
29 Sep - 23:19:30 10° WSW 23:24:58 21° SSW 23:30:31 10° SSE night (unlit)
30 Sep - 05:11:09 10° S 05:12:49 11° SSE 05:14:27 10° SSE visible
30 Sep - 07:01:17 10° SW 07:07:25 33° SSE 07:13:10 10° E daylight
30 Sep - 08:54:23 10° WSW 09:01:01 70° NNW 09:07:17 10° NE daylight
30 Sep - 10:50:23 10° WNW 10:54:37 18° NNW 10:58:48 10° NNE daylight
30 Sep - 18:29:48 10° NNW 18:35:38 28° NNE 18:41:48 10° E visible
30 Sep - 20:22:09 10° WNW 20:29:25 88° SSW 20:37:11 10° ESE visible
30 Sep - 22:17:08 10° W 22:23:29 29° SSW 22:30:02 10° SSE night (unlit)
01 Oct - 00:17:49 10° SSW 00:18:32 10° SSW 00:19:16 10° SSW night (unlit)
01 Oct - 06:00:42 10° SSW 06:06:10 23° SSE 06:11:20 10° ESE daylight
01 Oct - 07:53:10 10° SW 08:00:03 77° SSE 08:06:28 10° ENE daylight
01 Oct - 09:48:03 10° W 09:53:32 28° NNW 09:58:50 10° NNE daylight
01 Oct - 17:29:51 10° NNW 17:34:23 19° NNE 17:39:08 10° ENE daylight
01 Oct - 19:21:18 10° NW 19:28:15 64° NNE 19:35:44 10° ESE visible
01 Oct - 21:15:16 10° W 21:22:07 41° SSW 21:29:18 10° SE visible
01 Oct - 23:12:57 10° SW 23:16:47 14° SSW 23:20:39 10° S night (unlit)
02 Oct - 05:00:21 10° SSW 05:04:45 17° SSE 05:08:59 10° ESE visible
02 Oct - 06:52:08 10° SW 06:59:00 51° SSE 07:05:23 10° ENE daylight
02 Oct - 08:46:10 10° W 08:52:32 44° NNW 08:58:33 10° NE daylight
02 Oct - 10:44:11 10° NW 10:46:26 12° NNW 10:48:39 10° N daylight
02 Oct - 16:30:40 10° N 16:33:04 12° NNE 16:35:30 10° NE daylight
02 Oct - 18:20:45 10° NW 18:27:08 42° NNE 18:33:59 10° E visible
02 Oct - 20:13:50 10° WNW 20:20:51 59° SSW 20:28:21 10° SE visible
02 Oct - 22:09:58 10° WSW 22:15:10 20° SSW 22:20:30 10° SSE night (unlit)
